Regional Weather Roundup
Issued by NWS

Home | Current Version | Previous Version | Text Only | Print | Product List | Glossary On
Versions: 1 2 3 4 5 6 7 8 9 10 11 12 13 14 15 16 17 18 19 20 21 22 23 24 25 26 27 28 29 30 31 32 33 34 35 36 37 38 39 40 41 42 43 44 45 46 47 48 49 50
000
ASHW40 PHFO 310830
RWRHI

WEATHER ROUNDUP FOR HAWAII
NATIONAL WEATHER SERVICE HONOLULU HI
1000 PM HST THU JUL 30 2015

THIS IS AN AUTOMATED REPORT THAT HAS NOT BEEN QUALITY CONTROLLED.

NOTE..."FAIR" INDICATES FEW OR NO CLOUDS BELOW 12,000 FEET WITH NO
SIGNIFICANT WEATHER AND/OR OBSTRUCTIONS TO VISIBILITY.

* - THESE SITES REPORT LIMITED FIELDS

HIZ001>004-310900-
KAUAI-NIIHAU-

CITY           SKY/WX    TMP DP  RH WIND       PRES   REMARKS
LIHUE APT      CLOUDY    81  73  78 E20       30.03R
PORT ALLEN*    NOT AVBL
POIPU*           N/A     81 N/A N/A NE9G17      N/A
PRINCEVILLE*     N/A     77 N/A N/A MISG        N/A
KOKOLE POINT*  NOT AVBL
MOLOAA DAIRY*  NOT AVBL
WAIMEA HTS*    NOT AVBL
PUU OPAE*      NOT AVBL
PUU LUA*       NOT AVBL
MAKAHA RIDGE*    N/A     73  68  83 CALM        N/A
$$

HIZ005>011-310900-
OAHU-

CITY           SKY/WX    TMP DP  RH WIND       PRES   REMARKS
HONOLULU       PTCLDY    82  71  69 NE16G23   29.99R
KALAELOA       CLOUDY    81  70  69 VRB6      30.00R
KANEOHE MCB    MOCLDY    79  73  82 NE9       29.99R
WHEELER FIELD  MOCLDY    78  66  66 VRB2      30.04R
BELLOWS*         N/A    N/A N/A N/A NE18        N/A
KAHUKU*          N/A    N/A N/A N/A NE10G18     N/A
WHEELER*       NOT AVBL
WAIANAE HARBOR NOT AVBL
DILLINGHAM*      N/A     79  70  73 MISG        N/A
KAHUKU TRN*      N/A     75  68  78 E12G22      N/A
KAWAILOA*        N/A     73  68  83 E9G23       N/A
KII*             N/A     81  73  78 E16G22      N/A
MAKUA RANGE*     N/A     81  68  65 E5G14       N/A
OAHU FOREST NW NOT AVBL
SCHOFIELD BRK*   N/A     75  66  73 MISG        N/A
SCHOFIELD S*   NOT AVBL
WAIANAE VLY*   NOT AVBL
KUAOKALA*      NOT AVBL
HONOULIUULI*   NOT AVBL
MOKUOLOE IS*     N/A    N/A N/A N/A MISG        N/A
PALEHUA*       NOT AVBL
WAIAWA PHB*    NOT AVBL
$$

HIZ012>013-310900-
MOLOKAI-

CITY           SKY/WX    TMP DP  RH WIND       PRES   REMARKS
MOLOKAI AIRPT  MOCLDY    79  72  78 NE17G26   30.00R
KALAUPAPA      NOT AVBL
MAKAPULAPAI*   NOT AVBL
MOLOKAI 1*     NOT AVBL
PUU ALII*        N/A     62  62  99 CALM        N/A
$$

HIZ016-310900-
KAHOOLAWE-

CITY           SKY/WX    TMP DP  RH WIND       PRES   REMARKS
KAHOOLAWE*     NOT AVBL
HAKIOAWA*        N/A     76  70  81 MISG      30.43
HONOKANAIA*      N/A     80  70  71 NE16G31   29.99R
KANELOA*         N/A     79  72  78 E18G33    30.03R
KEALIALALO*      N/A     79  68  69 NE6G26      N/A
LUA MAKIKA*    NOT AVBL
$$

HIZ014>015-310900-
LANAI-

CITY           SKY/WX    TMP DP  RH WIND       PRES   REMARKS
LANAI CITY     FAIR      73  68  84 NE12      30.04R
LANAI 1*       NOT AVBL
$$

HIZ017>028-310900-
MAUI-

CITY           SKY/WX    TMP DP  RH WIND       PRES   REMARKS
KAHULUI        CLEAR     80  71  74 NE15G23   29.99R
KAPALUA-W MAUI NOT AVBL
HANA AIRPORT     N/A     75  73  94 E7        30.05R
HANA*            N/A     75 N/A N/A SE3G12      N/A
HALEAKALA SUMM NOT AVBL
MAALAEA BAY*   NOT AVBL
HALEAKALA*     NOT AVBL
KAUPO GAP*     NOT AVBL
KULA 1*          N/A     60  36  41 SE3         N/A
$$

HIZ023>026-310900-
BIG ISLAND OF HAWAII COAST AND LOWER SLOPES-

CITY           SKY/WX    TMP DP  RH WIND       PRES   REMARKS
KAILUA KONA    MOCLDY    82  72  71 SE9       29.93R
HILO           MOCLDY    76  73  91 S3        30.01R
HONOKAA*       NOT AVBL
KAWAIHAE MWT*    N/A     82 N/A N/A SE2         N/A
KAWAIHAE*        N/A     82 N/A N/A N2          N/A
SOUTH POINT*     N/A     75 N/A N/A NE20G32     N/A
UPOLU AIRPORT*   N/A    N/A N/A N/A NE16G25     N/A
KAMUELA*       CLOUDY    68  66  94 NE25      30.07R
HAKALAU*         N/A     46  37  71 W5          N/A
KALOKO-HONOKO*   N/A     81  70  69 E5        29.93R
PALI 2*          N/A     70  64  83 N12G26      N/A
KEALAKOMO*       N/A     82  72  69 NE12G21     N/A
KAUPULEHU*     NOT AVBL
KAPAPALA*        N/A     68  66  93 W5          N/A
LOWER KAHUKU*    N/A     66  66 100 VRB3G14     N/A
PUHE CS*         N/A     81  70  69 E2          N/A
PUHO CS*         N/A     79  70  74 E2          N/A
PTA KEAMUKU*     N/A     64  61  88 CALM        N/A
WAIKOLOA*      NOT AVBL
$$

HIZ027>028-310900-
BIG ISLAND OF HAWAII INTERIOR AND SUMMMITS-

CITY           SKY/WX    TMP DP  RH WIND       PRES   REMARKS
BRADSHAW FIELD CLEAR     57  53  85 SE8G16    30.33R
MK VISITOR CEN NOT AVBL
MAUNA KEA*     NOT AVBL
MAUNA LOA*       N/A     52  14  22 MISG        N/A
MAUNA LOA 1*   NOT AVBL
PTA KIPUKA*      N/A     59  59 100 E2G9        N/A
PTA RANGE 17*    N/A     63  54  72 E12G21      N/A
PTA WEST*        N/A     61  59  94 SE6         N/A
NENE CABIN*      N/A     54  39  58 NE5         N/A
AHUMOA*        NOT AVBL
PTA PORTABLE*  NOT AVBL
PUU MALI*        N/A    N/A N/A N/A E17G23      N/A
$$

HIC003-310900-
NORTHWEST ISLANDS-

CITY           SKY/WX    TMP DP  RH WIND       PRES   REMARKS
MIDWAY ISLAND  LGT RAIN  79  72  78 E13       30.02R
MIDWAY NOS*    NOT AVBL
FRENCH FRIGATE NOT AVBL
$$

PHZ110>124-180-310900-
BUOY REPORTS

STATION/POSITION TIME  TEMP    WIND        PRES    WAVE   SWELL
                       AIR SEA DIR/SP/G            HT/PER HT/DIR
                 (UTC) (F)     (DEG/KT/KT) (MB)    (FT/S) (FT/D)
BUOY 51001       NOT AVBL
BUOY 51101       0800   81 81   90/ 17/ 19 1016.2R   5/ 8   3/130
BUOY 51100       NOT AVBL
BUOY 51002       0800   82 82   80/ 21/ 25 1013.0R   7/ 7   3/150
BUOY 51003       0800   82 83   70/ 16/ 17 1014.4R   5/ 7   3
BUOY 51004       0735   81 81   60/ 16/ 19 1013.4R   7/ 7   3/120
BARBERS PT BUOY  NOT AVBL
WAIMEA BAY BUOY  0800      81                N/A     4/ 6
KAILUA BAY BUOY  0800      81                N/A     6/ 7   2/100
LANAI BUOY       NOT AVBL
BARBERS PT 2     0800      82                N/A     5/12   2/190
PAUWELA MAUI     0800      79                N/A     5/ 8   2/ 90
HILO             NOT AVBL
KANEOHE BAY BUOY 0800      80                N/A     5/ 7
HANALEI KAUAI    0800      81                N/A     4/ 6
KAHULUI HARBOR   0800   80 82   40/ 12/ 16 1015.6R
HONOLULU HARBOR  0800   82 82  110/  4/  7 1015.6R
KILO NALU        NOT AVBL
HILO HARBOR      0800   77 78  190/  3/  3 1016.0R
MOKUOLOE         0800      84              1016.3R
NAWILIWILI       0800   80 84   60/ 13/ 17 1016.5R
WHOTS BUOY       NOT AVBL
BUOY 51028       NOT AVBL
$$

......................KEY........................................
  SKY/WX - SKY CONDITIONS/PRESENT WEATHER
  TMP    - TEMPERATURE IN FAHRENHEIT
  DWPT   - DEWPOINT IN FAHRENHEIT
  RH     - RELATIVE HUMIDITY IN PERCENT
  WIND   - DIRECTION AND SPEED /MPH FOR ISLANDS...KTS FOR BUOYS/
  PRES   - MEAN SEA LEVEL PRESSURE IN INCHES OF HG
  VSB    - VISIBILITY IN MILES
  HX     - HEAT INDEX
  WCI    - WIND CHILL INDEX
  VRB    - VARIABLE WIND DIRECTION
  N/A    - NOT AVAILABLE



USA.gov is the U.S. government's official web portal to all federal, state and local government web resources and services.